246P/NEAT (2021)

Japanese version
Home page
Updated on July 27, 2020

---------------------------------------------------------------------

* Profile

* Pictures

* Orbital Elements

Epoch 2021 Mar. 7.0 TT = JDT 2459280.5
T 2021 Feb. 22.81684 TT                                 Rudenko
q   2.8639223            (2000.0)            P               Q
n   0.12245324     Peri.  176.29990     -0.25557218     +0.92828724
a   4.0162665      Node    78.74749     -0.89393253     -0.12049338
e   0.2869192      Incl.   15.98680     -0.36819492     -0.35180128
P   8.05
From 2875 observations 2003 Jan. 24-2020 Apr. 23, mean residual 0".6.

* Finding Charts

* Magnitudes Graph

        m1 = -17.5 + 5 log d + 50   log r(t - 200)  [    ,-460]  (             - 2019 Nov. 20)
        m1 =   0.0 + 5 log d + 25.0 log r(t + 85)   [-460, 130]  (2019 Nov. 20 - 2021 July  2)
        m1 =   5.2 + 5 log d + 15.0 log r           [ 130,    ]  (2021 July  2 -             )

---------------------------------------------------------------------

The orbital elements are published on M.P.E.C. 2020-N08.
The charts are made with StellaNavigator Ver.10 (AstroArts).
The magnitudes graphs are made with Comet for Windows.

---------------------------------------------------------------------

Copyright(C) Seiichi Yoshida (comet@aerith.net). All rights reserved.